| time (UTC) | temp F | wind direction | speed knots | gust knots | rain 1hr in | rain 24hr in | rain mn in | humidity % | barometer mb |
| 20260507051021 | 42 | 261 | 2.6 | 6.1 | 0.00 | 0.46 | 0.00 | 79 | 1012.1 |
| 20260507050524 | 42 | 265 | 1.7 | 6.1 | 0.00 | 0.46 | 0.00 | 80 | 1012.1 |
| 20260507050039 | 42 | 294 | 2.6 | 7.0 | 0.00 | 0.46 | 0.00 | 81 | 1012.1 |
| 20260507045533 | 43 | 248 | 2.6 | 7.0 | 0.00 | 0.52 | 0.00 | 81 | 1012.1 |
| 20260507045023 | 43 | 288 | 3.5 | 7.0 | 0.00 | 0.52 | 0.00 | 82 | 1012.1 |
| 20260507044547 | 43 | 298 | 2.6 | 6.1 | 0.00 | 0.52 | 0.00 | 82 | 1011.7 |
| 20260507044022 | 43 | 0 | 1.7 | 7.0 | 0.00 | 0.52 | 0.00 | 83 | 1011.8 |
| 20260507043521 | 43 | 267 | 2.6 | 7.0 | 0.00 | 0.52 | 0.00 | 84 | 1011.9 |
| 20260507043042 | 42 | 227 | 2.6 | 6.1 | 0.00 | 0.52 | 0.00 | 85 | 1011.9 |
| 20260507042525 | 42 | 282 | 0.0 | 6.1 | 0.00 | 0.52 | 0.00 | 85 | 1012.0 |
| 20260507042022 | 42 | 278 | 0.9 | 7.0 | 0.00 | 0.52 | 0.00 | 86 | 1011.8 |
| 20260507041541 | 42 | 272 | 1.7 | 7.0 | 0.00 | 0.52 | 0.00 | 86 | 1011.7 |
| 20260507041020 | 42 | 277 | 4.3 | 7.0 | 0.00 | 0.52 | 0.00 | 86 | 1011.6 |
| 20260507040521 | 42 | 291 | 2.6 | 7.0 | 0.00 | 0.52 | 0.00 | 87 | 1011.7 |
| 20260507040041 | 42 | 267 | 2.6 | 8.7 | 0.00 | 0.52 | 0.00 | 88 | 1011.5 |
| 20260507035520 | 42 | 304 | 2.6 | 8.7 | 0.00 | 0.55 | 0.52 | 88 | 1011.7 |
| 20260507035023 | 42 | 317 | 3.5 | 7.8 | 0.00 | 0.55 | 0.52 | 89 | 1011.6 |
| 20260507034545 | 42 | 260 | 2.6 | 7.8 | 0.00 | 0.55 | 0.52 | 89 | 1011.5 |
| 20260507034023 | 42 | 278 | 2.6 | 7.0 | 0.00 | 0.55 | 0.52 | 90 | 1011.4 |
| 20260507033523 | 42 | 280 | 1.7 | 7.0 | 0.00 | 0.55 | 0.52 | 90 | 1011.3 |
| 20260507033035 | 42 | 305 | 1.7 | 6.1 | 0.00 | 0.55 | 0.52 | 90 | 1011.2 |
| 20260507032521 | 42 | 263 | 2.6 | 6.1 | 0.00 | 0.55 | 0.52 | 90 | 1011.4 |
| 20260507032022 | 42 | 267 | 2.6 | 6.1 | 0.00 | 0.55 | 0.52 | 90 | 1011.4 |
| 20260507031543 | 42 | 254 | 2.6 | 6.1 | 0.00 | 0.55 | 0.52 | 90 | 1011.3 |
| 20260507031026 | 42 | 246 | 1.7 | 5.2 | 0.00 | 0.55 | 0.52 | 90 | 1011.2 |
| 20260507030523 | 42 | 0 | 0.9 | 5.2 | 0.00 | 0.55 | 0.52 | 90 | 1011.2 |
| 20260507030046 | 42 | 0 | 0.0 | 3.5 | 0.00 | 0.55 | 0.52 | 90 | 1011.3 |
| 20260507025520 | 42 | 279 | 1.7 | 3.5 | 0.00 | 0.60 | 0.52 | 90 | 1011.4 |
| 20260507025020 | 42 | 262 | 0.9 | 4.3 | 0.00 | 0.60 | 0.52 | 90 | 1011.4 |
| 20260507024543 | 42 | 263 | 1.7 | 5.2 | 0.00 | 0.60 | 0.52 | 90 | 1011.4 |
| 20260507024022 | 42 | 242 | 2.6 | 6.1 | 0.00 | 0.60 | 0.52 | 89 | 1011.4 |
| 20260507023524 | 42 | 251 | 1.7 | 6.1 | 0.00 | 0.60 | 0.52 | 89 | 1011.5 |
| 20260507023042 | 42 | 246 | 2.6 | 6.1 | 0.00 | 0.60 | 0.52 | 89 | 1011.4 |
| 20260507022523 | 42 | 255 | 1.7 | 3.5 | 0.00 | 0.60 | 0.52 | 89 | 1011.3 |
| 20260507022021 | 42 | 256 | 1.7 | 4.3 | 0.00 | 0.60 | 0.52 | 89 | 1011.4 |
| 20260507021537 | 42 | 254 | 1.7 | 4.3 | 0.00 | 0.60 | 0.52 | 89 | 1011.5 |
| 20260507021024 | 42 | 265 | 0.9 | 3.5 | 0.00 | 0.60 | 0.52 | 89 | 1011.3 |
| 20260507020523 | 42 | 277 | 0.9 | 6.1 | 0.00 | 0.60 | 0.52 | 88 | 1011.4 |
| 20260507020046 | 42 | 0 | 0.9 | 6.1 | 0.00 | 0.60 | 0.52 | 88 | 1011.4 |
| 20260507015523 | 42 | 306 | 1.7 | 7.0 | 0.00 | 0.62 | 0.52 | 88 | 1011.5 |
| 20260507015023 | 42 | 288 | 2.6 | 7.0 | 0.00 | 0.62 | 0.52 | 87 | 1011.5 |
| 20260507014553 | 42 | 306 | 2.6 | 7.0 | 0.00 | 0.62 | 0.52 | 86 | 1011.6 |
| 20260507014024 | 42 | 303 | 2.6 | 6.1 | 0.00 | 0.62 | 0.52 | 85 | 1011.7 |
| 20260507013522 | 43 | 300 | 2.6 | 6.1 | 0.00 | 0.62 | 0.52 | 84 | 1011.7 |
| 20260507013041 | 43 | 276 | 1.7 | 7.0 | 0.00 | 0.62 | 0.52 | 83 | 1011.6 |
| 20260507012526 | 43 | 292 | 2.6 | 7.0 | 0.00 | 0.62 | 0.52 | 83 | 1011.7 |
| 20260507012025 | 44 | 320 | 2.6 | 7.0 | 0.00 | 0.62 | 0.52 | 83 | 1011.5 |
| 20260507011541 | 44 | 265 | 3.5 | 6.1 | 0.00 | 0.62 | 0.52 | 84 | 1011.5 |
| 20260507011022 | 44 | 338 | 1.7 | 4.3 | 0.00 | 0.62 | 0.52 | 84 | 1011.3 |
| 20260507010525 | 44 | 311 | 0.9 | 4.3 | 0.00 | 0.62 | 0.52 | 84 | 1011.2 |
| 20260507010042 | 44 | 332 | 1.7 | 4.3 | 0.00 | 0.62 | 0.52 | 85 | 1011.1 |
| 20260507005526 | 44 | 0 | 0.0 | 2.6 | 0.00 | 0.65 | 0.52 | 86 | 1011.0 |
| 20260507005027 | 44 | 0 | 0.0 | 0.0 | 0.00 | 0.65 | 0.52 | 86 | 1010.7 |
| 20260507004543 | 44 | 0 | 0.0 | 0.0 | 0.00 | 0.65 | 0.52 | 85 | 1010.7 |
| 20260507004023 | 44 | 0 | 0.0 | 0.0 | 0.00 | 0.65 | 0.52 | 85 | 1010.6 |
| 20260507003522 | 45 | 0 | 0.0 | 0.0 | 0.00 | 0.65 | 0.52 | 85 | 1010.6 |
| 20260507003035 | 45 | 0 | 0.0 | 0.0 | 0.00 | 0.65 | 0.52 | 85 | 1010.4 |
| 20260507002527 | 45 | 0 | 0.0 | 0.0 | 0.00 | 0.65 | 0.52 | 84 | 1010.5 |
| 20260507002023 | 45 | 0 | 0.0 | 0.0 | 0.00 | 0.65 | 0.52 | 84 | 1010.4 |
| 20260507001543 | 45 | 0 | 0.0 | 2.6 | 0.00 | 0.65 | 0.52 | 84 | 1010.3 |
| 20260507001027 | 45 | 0 | 0.0 | 2.6 | 0.00 | 0.65 | 0.52 | 85 | 1010.4 |
| 20260507000523 | 45 | 0 | 0.0 | 0.0 | 0.00 | 0.65 | 0.52 | 85 | 1010.4 |
| 20260507000045 | 45 | 0 | 0.0 | 0.0 | 0.00 | 0.65 | 0.52 | 85 | 1010.4 |
| 20260506235522 | 45 | 0 | 0.0 | 0.0 | 0.00 | 0.72 | 0.52 | 85 | 1010.5 |
| 20260506235022 | 45 | 0 | 0.0 | 0.0 | 0.00 | 0.72 | 0.52 | 85 | 1010.3 |
| 20260506234541 | 45 | 0 | 0.0 | 0.0 | 0.00 | 0.72 | 0.52 | 85 | 1010.3 |
| 20260506234023 | 45 | 0 | 0.0 | 0.0 | 0.00 | 0.72 | 0.52 | 84 | 1010.2 |
| 20260506233523 | 45 | 0 | 0.0 | 0.9 | 0.00 | 0.72 | 0.52 | 84 | 1010.3 |
| 20260506233040 | 45 | 0 | 0.0 | 0.9 | 0.00 | 0.72 | 0.52 | 84 | 1010.1 |
| 20260506232522 | 45 | 0 | 0.0 | 0.9 | 0.00 | 0.72 | 0.52 | 84 | 1010.1 |
| 20260506232022 | 45 | 0 | 0.0 | 0.9 | 0.00 | 0.72 | 0.52 | 84 | 1009.9 |
| 20260506231547 | 45 | 0 | 0.0 | 2.6 | 0.00 | 0.72 | 0.52 | 84 | 1009.9 |
| 20260506231025 | 45 | 0 | 0.0 | 2.6 | 0.00 | 0.72 | 0.52 | 83 | 1009.9 |
| 20260506230523 | 45 | 144 | 0.0 | 1.7 | 0.00 | 0.72 | 0.52 | 83 | 1009.8 |
| 20260506230036 | 45 | 0 | 0.9 | 2.6 | 0.00 | 0.72 | 0.52 | 83 | 1009.7 |
| 20260506225524 | 45 | 149 | 0.9 | 2.6 | 0.00 | 0.72 | 0.52 | 83 | 1009.6 |
| 20260506225050 | 45 | 149 | 0.0 | 2.6 | 0.00 | 0.72 | 0.52 | 83 | 1009.5 |
| 20260506224544 | 45 | 149 | 0.0 | 0.0 | 0.00 | 0.72 | 0.52 | 83 | 1009.6 |
| 20260506224022 | 45 | 0 | 0.0 | 0.0 | 0.00 | 0.72 | 0.52 | 82 | 1009.6 |
| 20260506223522 | 45 | 0 | 0.0 | 0.0 | 0.00 | 0.72 | 0.52 | 82 | 1009.5 |
| 20260506223041 | 45 | 0 | 0.0 | 0.0 | 0.00 | 0.72 | 0.52 | 82 | 1009.7 |
| 20260506222523 | 45 | 0 | 0.0 | 0.0 | 0.00 | 0.72 | 0.52 | 82 | 1009.5 |
| 20260506222023 | 45 | 0 | 0.0 | 0.0 | 0.00 | 0.72 | 0.52 | 82 | 1009.3 |
| 20260506221544 | 45 | 0 | 0.0 | 0.0 | 0.00 | 0.72 | 0.52 | 82 | 1009.4 |
| 20260506221022 | 45 | 0 | 0.0 | 0.0 | 0.00 | 0.72 | 0.52 | 82 | 1009.5 |
| 20260506220522 | 45 | 0 | 0.0 | 0.0 | 0.00 | 0.72 | 0.52 | 82 | 1009.7 |
| 20260506220042 | 45 | 0 | 0.0 | 0.0 | 0.00 | 0.72 | 0.52 | 82 | 1009.8 |
| 20260506215523 | 45 | 0 | 0.0 | 0.0 | 0.00 | 0.72 | 0.52 | 81 | 1009.8 |
| 20260506215022 | 45 | 0 | 0.0 | 0.0 | 0.00 | 0.72 | 0.52 | 81 | 1009.8 |
| 20260506214540 | 45 | 0 | 0.0 | 0.0 | 0.00 | 0.72 | 0.52 | 81 | 1009.6 |
| 20260506214023 | 45 | 0 | 0.0 | 0.0 | 0.00 | 0.72 | 0.52 | 80 | 1009.7 |
| 20260506213523 | 45 | 0 | 0.0 | 0.0 | 0.00 | 0.72 | 0.52 | 81 | 1009.7 |
| 20260506213036 | 45 | 0 | 0.0 | 0.0 | 0.00 | 0.72 | 0.52 | 81 | 1009.4 |
| 20260506212523 | 45 | 0 | 0.0 | 0.0 | 0.00 | 0.72 | 0.52 | 81 | 1009.4 |
| 20260506212023 | 45 | 0 | 0.0 | 0.0 | 0.00 | 0.72 | 0.52 | 81 | 1009.4 |
| 20260506211542 | 45 | 0 | 0.0 | 0.0 | 0.00 | 0.72 | 0.52 | 81 | 1009.5 |
| 20260506211023 | 44 | 0 | 0.0 | 0.0 | 0.00 | 0.72 | 0.52 | 81 | 1009.3 |
| 20260506210527 | 44 | 0 | 0.0 | 0.0 | 0.00 | 0.72 | 0.52 | 80 | 1009.4 |
| 20260506210044 | 44 | 0 | 0.0 | 0.0 | 0.00 | 0.72 | 0.52 | 81 | 1009.2 |
| 20260506205521 | 44 | 0 | 0.0 | 0.0 | 0.00 | 0.72 | 0.52 | 81 | 1009.3 |
| 20260506205022 | 44 | 0 | 0.0 | 2.6 | 0.00 | 0.72 | 0.52 | 81 | 1009.6 |
| 20260506204541 | 44 | 0 | 0.0 | 2.6 | 0.00 | 0.72 | 0.52 | 81 | 1009.5 |
| 20260506204023 | 44 | 0 | 0.9 | 2.6 | 0.00 | 0.72 | 0.52 | 81 | 1009.6 |
| 20260506203522 | 44 | 0 | 0.0 | 3.5 | 0.00 | 0.72 | 0.52 | 81 | 1009.5 |
| 20260506203048 | 44 | 342 | 0.0 | 3.5 | 0.00 | 0.72 | 0.52 | 81 | 1009.4 |
| 20260506202525 | 44 | 0 | 1.7 | 3.5 | 0.00 | 0.72 | 0.52 | 81 | 1009.4 |
| 20260506202022 | 44 | 29 | 0.9 | 3.5 | 0.00 | 0.72 | 0.52 | 81 | 1009.4 |
| 20260506201559 | 44 | 28 | 1.7 | 3.5 | 0.00 | 0.72 | 0.52 | 82 | 1009.4 |
| 20260506201022 | 44 | 22 | 0.9 | 3.5 | 0.00 | 0.72 | 0.52 | 82 | 1009.4 |
| 20260506200523 | 44 | 19 | 1.7 | 4.3 | 0.00 | 0.72 | 0.52 | 82 | 1009.4 |
| 20260506200040 | 44 | 26 | 1.7 | 4.3 | 0.00 | 0.72 | 0.52 | 82 | 1009.3 |
| 20260506195520 | 44 | 5 | 1.7 | 3.5 | 0.00 | 0.72 | 0.52 | 83 | 1009.2 |
| 20260506195023 | 44 | 349 | 1.7 | 3.5 | 0.00 | 0.72 | 0.52 | 82 | 1009.3 |
| 20260506194550 | 44 | 34 | 1.7 | 6.1 | 0.00 | 0.72 | 0.52 | 84 | 1009.4 |
| 20260506194022 | 44 | 9 | 2.6 | 6.1 | 0.00 | 0.72 | 0.52 | 83 | 1009.5 |
| 20260506193522 | 44 | 23 | 0.9 | 4.3 | 0.00 | 0.72 | 0.52 | 84 | 1009.4 |
| 20260506193050 | 44 | 48 | 1.7 | 4.3 | 0.00 | 0.72 | 0.52 | 84 | 1009.3 |
| 20260506192524 | 44 | 24 | 1.7 | 4.3 | 0.00 | 0.72 | 0.52 | 85 | 1009.5 |
| 20260506192020 | 44 | 40 | 2.6 | 5.2 | 0.00 | 0.72 | 0.52 | 85 | 1009.5 |
| 20260506191543 | 44 | 19 | 2.6 | 6.1 | 0.00 | 0.72 | 0.52 | 85 | 1009.5 |
| 20260506191023 | 44 | 352 | 2.6 | 6.1 | 0.00 | 0.72 | 0.52 | 86 | 1009.4 |
| 20260506190523 | 44 | 5 | 1.7 | 6.1 | 0.00 | 0.72 | 0.52 | 87 | 1009.4 |
| 20260506190040 | 44 | 32 | 2.6 | 6.1 | 0.00 | 0.72 | 0.52 | 87 | 1009.4 |
| 20260506185521 | 44 | 32 | 2.6 | 7.8 | 0.00 | 0.72 | 0.52 | 88 | 1009.3 |
| 20260506185020 | 43 | 11 | 3.5 | 7.8 | 0.00 | 0.72 | 0.52 | 88 | 1009.2 |
| 20260506184547 | 43 | 314 | 2.6 | 7.8 | 0.00 | 0.72 | 0.52 | 89 | 1009.4 |
| 20260506184023 | 43 | 308 | 1.7 | 7.0 | 0.00 | 0.72 | 0.52 | 89 | 1009.3 |
| 20260506183523 | 43 | 333 | 2.6 | 9.6 | 0.00 | 0.72 | 0.52 | 89 | 1009.3 |
| 20260506183034 | 43 | 360 | 2.6 | 9.6 | 0.00 | 0.72 | 0.52 | 89 | 1009.5 |
| 20260506182520 | 42 | 320 | 3.5 | 9.6 | 0.00 | 0.72 | 0.52 | 89 | 1009.7 |
| 20260506182025 | 42 | 336 | 2.6 | 7.8 | 0.00 | 0.72 | 0.52 | 89 | 1009.6 |
| 20260506181541 | 42 | 360 | 2.6 | 7.8 | 0.00 | 0.72 | 0.52 | 89 | 1009.7 |
| 20260506181023 | 42 | 310 | 3.5 | 7.8 | 0.00 | 0.72 | 0.52 | 89 | 1009.7 |
| 20260506180525 | 42 | 360 | 2.6 | 6.1 | 0.00 | 0.72 | 0.52 | 89 | 1009.5 |
| 20260506180040 | 43 | 360 | 2.6 | 7.0 | 0.00 | 0.72 | 0.52 | 89 | 1009.4 |
| 20260506175526 | 43 | 352 | 2.6 | 7.0 | 0.00 | 0.72 | 0.52 | 90 | 1009.3 |
| 20260506175020 | 43 | 11 | 1.7 | 6.1 | 0.00 | 0.72 | 0.52 | 90 | 1009.2 |
| 20260506174541 | 43 | 327 | 3.5 | 6.1 | 0.00 | 0.72 | 0.52 | 90 | 1009.1 |
| 20260506174026 | 43 | 5 | 2.6 | 7.8 | 0.00 | 0.72 | 0.52 | 90 | 1008.9 |
| 20260506173525 | 42 | 360 | 1.7 | 7.8 | 0.00 | 0.72 | 0.52 | 90 | 1008.8 |
| 20260506173054 | 43 | 360 | 2.6 | 7.0 | 0.00 | 0.72 | 0.52 | 91 | 1008.6 |
| 20260506172523 | 43 | 5 | 3.5 | 7.8 | 0.00 | 0.72 | 0.52 | 90 | 1008.6 |
| 20260506172027 | 43 | 5 | 3.5 | 7.8 | 0.00 | 0.72 | 0.52 | 90 | 1008.7 |
| 20260506171550 | 43 | 19 | 1.7 | 7.8 | 0.00 | 0.72 | 0.52 | 91 | 1008.7 |
| 20260506171021 | 43 | 20 | 1.7 | 8.7 | 0.00 | 0.72 | 0.52 | 91 | 1008.7 |
| 20260506170521 | 43 | 28 | 2.6 | 8.7 | 0.00 | 0.72 | 0.52 | 91 | 1008.8 |
| 20260506170045 | 43 | 14 | 3.5 | 8.7 | 0.00 | 0.72 | 0.52 | 91 | 1008.8 |
| 20260506165526 | 43 | 344 | 3.5 | 8.7 | 0.00 | 0.72 | 0.52 | 91 | 1008.7 |
| 20260506165027 | 43 | 326 | 4.3 | 8.7 | 0.00 | 0.72 | 0.52 | 91 | 1008.6 |
| 20260506164543 | 43 | 24 | 2.6 | 7.8 | 0.00 | 0.72 | 0.52 | 91 | 1008.5 |
| 20260506164144 | 43 | 352 | 2.6 | 8.7 | 0.00 | 0.72 | 0.52 | 91 | 1008.5 |
| 20260506163527 | 43 | 341 | 4.3 | 8.7 | 0.00 | 0.72 | 0.52 | 91 | 1008.2 |
| 20260506163058 | 43 | 28 | 2.6 | 7.8 | 0.00 | 0.72 | 0.52 | 92 | 1008.4 |
| 20260506162527 | 43 | 352 | 2.6 | 7.8 | 0.00 | 0.72 | 0.52 | 92 | 1008.5 |
| 20260506162022 | 42 | 42 | 3.5 | 7.8 | 0.00 | 0.72 | 0.52 | 91 | 1008.6 |
| 20260506161544 | 43 | 32 | 3.5 | 7.8 | 0.00 | 0.72 | 0.52 | 92 | 1008.6 |
| 20260506161023 | 43 | 63 | 2.6 | 7.8 | 0.00 | 0.72 | 0.52 | 92 | 1008.6 |
| 20260506160527 | 43 | 19 | 3.5 | 7.8 | 0.00 | 0.72 | 0.52 | 92 | 1008.6 |
| 20260506160042 | 43 | 24 | 2.6 | 7.0 | 0.00 | 0.72 | 0.52 | 92 | 1008.7 |
| 20260506155523 | 43 | 24 | 2.6 | 6.1 | 0.00 | 0.72 | 0.52 | 92 | 1008.8 |
| 20260506155023 | 43 | 9 | 2.6 | 7.0 | 0.00 | 0.72 | 0.52 | 92 | 1008.8 |
| 20260506154540 | 43 | 352 | 3.5 | 7.0 | 0.00 | 0.72 | 0.52 | 92 | 1008.8 |
| 20260506154026 | 43 | 327 | 2.6 | 6.1 | 0.00 | 0.72 | 0.52 | 92 | 1008.8 |
| 20260506153523 | 42 | 20 | 2.6 | 7.0 | 0.00 | 0.72 | 0.52 | 92 | 1008.8 |
| 20260506153042 | 42 | 5 | 2.6 | 7.0 | 0.00 | 0.72 | 0.52 | 92 | 1008.8 |
| 20260506152525 | 42 | 32 | 2.6 | 6.1 | 0.00 | 0.72 | 0.52 | 92 | 1008.8 |
| 20260506152025 | 42 | 15 | 2.6 | 6.1 | 0.01 | 0.72 | 0.52 | 92 | 1008.9 |
| 20260506151542 | 42 | 11 | 2.6 | 7.0 | 0.01 | 0.72 | 0.52 | 92 | 1008.8 |
| 20260506151024 | 42 | 5 | 1.7 | 7.0 | 0.01 | 0.72 | 0.52 | 92 | 1008.8 |
| 20260506150520 | 42 | 28 | 2.6 | 7.0 | 0.01 | 0.72 | 0.52 | 92 | 1008.9 |
| 20260506150042 | 42 | 32 | 0.9 | 7.8 | 0.01 | 0.72 | 0.52 | 92 | 1008.7 |
| 20260506145521 | 42 | 22 | 2.6 | 7.8 | 0.01 | 0.72 | 0.52 | 92 | 1008.7 |
| 20260506145021 | 43 | 24 | 2.6 | 7.8 | 0.01 | 0.72 | 0.52 | 92 | 1008.5 |
| 20260506144540 | 43 | 27 | 3.5 | 7.0 | 0.01 | 0.72 | 0.52 | 92 | 1008.3 |
| 20260506144022 | 43 | 44 | 1.7 | 6.1 | 0.01 | 0.72 | 0.52 | 92 | 1008.2 |
| 20260506143522 | 43 | 342 | 2.6 | 6.1 | 0.01 | 0.72 | 0.52 | 92 | 1008.4 |
| 20260506143041 | 43 | 54 | 2.6 | 6.1 | 0.01 | 0.72 | 0.52 | 92 | 1008.3 |
| 20260506142522 | 43 | 32 | 2.6 | 6.1 | 0.02 | 0.72 | 0.52 | 92 | 1008.3 |
| 20260506142023 | 43 | 9 | 2.6 | 7.8 | 0.01 | 0.71 | 0.52 | 92 | 1008.3 |
| 20260506141534 | 43 | 352 | 1.7 | 7.8 | 0.01 | 0.71 | 0.52 | 92 | 1008.2 |
| 20260506141023 | 43 | 52 | 2.6 | 7.8 | 0.01 | 0.71 | 0.52 | 91 | 1008.2 |
| 20260506140526 | 43 | 45 | 2.6 | 6.1 | 0.01 | 0.71 | 0.52 | 91 | 1008.3 |
| 20260506140053 | 43 | 84 | 2.6 | 7.0 | 0.01 | 0.71 | 0.52 | 91 | 1008.3 |
| 20260506135522 | 43 | 321 | 3.5 | 7.0 | 0.01 | 0.71 | 0.52 | 91 | 1008.2 |
| 20260506135022 | 43 | 38 | 2.6 | 7.0 | 0.01 | 0.71 | 0.52 | 91 | 1008.1 |
| 20260506134541 | 43 | 38 | 2.6 | 7.0 | 0.01 | 0.71 | 0.52 | 91 | 1008.2 |
| 20260506134023 | 43 | 12 | 2.6 | 7.0 | 0.01 | 0.71 | 0.52 | 91 | 1008.1 |
| 20260506133619 | 43 | 32 | 3.5 | 7.0 | 0.01 | 0.71 | 0.52 | 91 | 1008.1 |
| 20260506133040 | 43 | 61 | 2.6 | 7.0 | 0.01 | 0.71 | 0.52 | 92 | 1008.0 |
| 20260506132522 | 43 | 59 | 2.6 | 6.1 | 0.00 | 0.70 | 0.51 | 92 | 1007.9 |
| 20260506132023 | 43 | 54 | 2.6 | 5.2 | 0.01 | 0.70 | 0.51 | 91 | 1008.1 |
| 20260506131541 | 43 | 64 | 2.6 | 4.3 | 0.01 | 0.70 | 0.51 | 91 | 1008.1 |
| 20260506131026 | 43 | 55 | 1.7 | 6.1 | 0.01 | 0.70 | 0.51 | 91 | 1008.1 |
| 20260506130525 | 43 | 75 | 2.6 | 7.0 | 0.01 | 0.70 | 0.51 | 91 | 1008.1 |
| 20260506130041 | 43 | 45 | 2.6 | 7.0 | 0.01 | 0.70 | 0.51 | 91 | 1008.1 |
| 20260506125523 | 43 | 78 | 1.7 | 6.1 | 0.01 | 0.70 | 0.51 | 91 | 1008.1 |
| 20260506125023 | 43 | 71 | 2.6 | 6.1 | 0.01 | 0.70 | 0.51 | 91 | 1008.0 |
| 20260506124538 | 43 | 65 | 3.5 | 7.0 | 0.02 | 0.70 | 0.51 | 91 | 1008.1 |
| 20260506124023 | 43 | 57 | 3.5 | 7.0 | 0.02 | 0.70 | 0.51 | 90 | 1008.0 |
| 20260506123523 | 43 | 70 | 2.6 | 8.7 | 0.02 | 0.70 | 0.51 | 91 | 1008.2 |
| 20260506123043 | 43 | 36 | 1.7 | 8.7 | 0.02 | 0.70 | 0.51 | 91 | 1008.1 |
| 20260506122523 | 43 | 66 | 5.2 | 11.3 | 0.02 | 0.70 | 0.51 | 90 | 1008.2 |
| 20260506122022 | 43 | 78 | 6.1 | 11.3 | 0.01 | 0.69 | 0.50 | 90 | 1008.1 |
| 20260506121543 | 43 | 57 | 3.5 | 7.8 | 0.01 | 0.69 | 0.50 | 90 | 1008.4 |
| 20260506121022 | 43 | 66 | 2.6 | 7.8 | 0.02 | 0.69 | 0.50 | 90 | 1008.6 |
| 20260506120523 | 43 | 69 | 3.5 | 7.8 | 0.02 | 0.69 | 0.50 | 90 | 1008.3 |
| 20260506120050 | 43 | 59 | 3.5 | 7.8 | 0.02 | 0.69 | 0.50 | 91 | 1008.2 |
| 20260506115523 | 43 | 69 | 2.6 | 7.8 | 0.03 | 0.69 | 0.50 | 91 | 1008.1 |
| 20260506115023 | 43 | 75 | 3.5 | 8.7 | 0.03 | 0.69 | 0.50 | 91 | 1008.0 |
| 20260506114550 | 43 | 55 | 3.5 | 8.7 | 0.02 | 0.68 | 0.49 | 91 | 1007.7 |
| 20260506114023 | 43 | 76 | 5.2 | 11.3 | 0.03 | 0.68 | 0.49 | 91 | 1007.9 |
| 20260506113523 | 43 | 43 | 5.2 | 11.3 | 0.03 | 0.68 | 0.49 | 91 | 1007.8 |
| 20260506113035 | 43 | 91 | 5.2 | 8.7 | 0.04 | 0.68 | 0.49 | 91 | 1007.8 |
| 20260506112519 | 43 | 80 | 3.5 | 7.8 | 0.05 | 0.68 | 0.49 | 92 | 1008.0 |
| 20260506112019 | 43 | 111 | 3.5 | 7.8 | 0.05 | 0.68 | 0.49 | 92 | 1008.1 |
| 20260506111543 | 43 | 19 | 2.6 | 7.8 | 0.06 | 0.68 | 0.49 | 92 | 1008.0 |
| 20260506111023 | 43 | 51 | 3.5 | 7.8 | 0.06 | 0.67 | 0.48 | 92 | 1007.8 |
| 20260506110523 | 43 | 61 | 2.6 | 7.8 | 0.06 | 0.67 | 0.48 | 92 | 1008.1 |
| 20260506110042 | 43 | 57 | 3.5 | 7.8 | 0.07 | 0.67 | 0.48 | 92 | 1008.1 |
| 20260506105520 | 43 | 76 | 2.6 | 6.1 | 0.07 | 0.66 | 0.47 | 92 | 1008.2 |
| 20260506105021 | 43 | 55 | 3.5 | 7.8 | 0.07 | 0.66 | 0.47 | 92 | 1008.3 |
| 20260506104544 | 43 | 24 | 2.6 | 7.8 | 0.07 | 0.66 | 0.47 | 92 | 1008.3 |
| 20260506104023 | 43 | 38 | 3.5 | 7.0 | 0.06 | 0.65 | 0.46 | 92 | 1008.2 |
| 20260506103520 | 44 | 76 | 2.6 | 5.2 | 0.06 | 0.65 | 0.46 | 92 | 1008.2 |
| 20260506103040 | 44 | 9 | 1.7 | 4.3 | 0.05 | 0.64 | 0.45 | 92 | 1008.5 |
| 20260506102523 | 44 | 53 | 2.6 | 4.3 | 0.04 | 0.63 | 0.44 | 92 | 1008.3 |
| 20260506102023 | 44 | 49 | 0.9 | 4.3 | 0.04 | 0.63 | 0.44 | 92 | 1008.5 |
| 20260506101537 | 44 | 34 | 0.9 | 8.7 | 0.03 | 0.62 | 0.43 | 92 | 1008.5 |
| 20260506101023 | 44 | 38 | 1.7 | 8.7 | 0.03 | 0.61 | 0.42 | 92 | 1008.3 |
| 20260506100520 | 44 | 342 | 2.6 | 6.1 | 0.03 | 0.61 | 0.42 | 92 | 1008.3 |
| 20260506100047 | 44 | 26 | 2.6 | 6.1 | 0.02 | 0.60 | 0.41 | 92 | 1008.1 |
| 20260506095524 | 44 | 67 | 1.7 | 5.2 | 0.02 | 0.58 | 0.40 | 92 | 1008.4 |
| 20260506095021 | 44 | 63 | 1.7 | 4.3 | 0.02 | 0.58 | 0.40 | 92 | 1008.1 |
| 20260506094546 | 44 | 61 | 1.7 | 4.3 | 0.02 | 0.58 | 0.40 | 92 | 1007.8 |
| 20260506094022 | 44 | 86 | 2.6 | 5.2 | 0.03 | 0.58 | 0.40 | 92 | 1007.8 |
| 20260506093523 | 44 | 87 | 1.7 | 7.0 | 0.03 | 0.58 | 0.40 | 92 | 1007.8 |
| 20260506093102 | 44 | 98 | 2.6 | 7.0 | 0.04 | 0.58 | 0.40 | 92 | 1007.6 |
| 20260506092520 | 44 | 75 | 1.7 | 6.1 | 0.04 | 0.58 | 0.40 | 92 | 1007.5 |
| 20260506092020 | 44 | 75 | 2.6 | 6.1 | 0.05 | 0.58 | 0.40 | 92 | 1007.7 |
| 20260506091545 | 44 | 84 | 2.6 | 7.0 | 0.05 | 0.58 | 0.40 | 92 | 1008.0 |
| 20260506091021 | 44 | 76 | 1.7 | 7.8 | 0.05 | 0.58 | 0.39 | 92 | 1008.0 |
| 20260506090520 | 44 | 78 | 3.5 | 7.8 | 0.05 | 0.58 | 0.39 | 92 | 1008.1 |
| 20260506090042 | 44 | 83 | 4.3 | 7.8 | 0.06 | 0.58 | 0.39 | 92 | 1007.8 |
| 20260506085523 | 44 | 120 | 2.6 | 6.1 | 0.06 | 0.57 | 0.38 | 92 | 1007.9 |
| 20260506085021 | 44 | 100 | 1.7 | 5.2 | 0.07 | 0.57 | 0.38 | 92 | 1008.2 |
| 20260506084545 | 44 | 104 | 1.7 | 5.2 | 0.07 | 0.57 | 0.38 | 92 | 1008.3 |
| 20260506084022 | 44 | 97 | 1.7 | 5.2 | 0.07 | 0.56 | 0.37 | 92 | 1008.6 |
| 20260506083523 | 44 | 159 | 1.7 | 3.5 | 0.08 | 0.56 | 0.37 | 92 | 1008.6 |
| 20260506083045 | 44 | 0 | 0.0 | 3.5 | 0.08 | 0.55 | 0.36 | 92 | 1008.6 |
| 20260506082527 | 44 | 81 | 1.7 | 4.3 | 0.08 | 0.55 | 0.36 | 92 | 1008.5 |
| 20260506082022 | 44 | 84 | 0.9 | 6.1 | 0.08 | 0.54 | 0.35 | 92 | 1008.6 |
| 20260506081541 | 44 | 136 | 1.7 | 7.8 | 0.09 | 0.54 | 0.35 | 92 | 1008.7 |
| 20260506081022 | 44 | 101 | 2.6 | 7.8 | 0.09 | 0.52 | 0.34 | 92 | 1008.5 |
| 20260506080521 | 44 | 90 | 1.7 | 5.2 | 0.08 | 0.52 | 0.33 | 92 | 1008.5 |
| 20260506073526 | 44 | 105 | 2.6 | 7.8 | 0.12 | 0.49 | 0.29 | 92 | 1008.5 |
| 20260506073042 | 44 | 83 | 3.5 | 7.8 | 0.12 | 0.48 | 0.28 | 92 | 1008.3 |
| 20260506072524 | 44 | 86 | 2.6 | 7.0 | 0.11 | 0.47 | 0.27 | 92 | 1008.3 |
| 20260506072027 | 44 | 40 | 2.6 | 7.0 | 0.11 | 0.47 | 0.27 | 92 | 1008.4 |
| 20260506071547 | 44 | 52 | 2.6 | 6.1 | 0.10 | 0.46 | 0.26 | 92 | 1008.7 |
| 20260506071021 | 44 | 32 | 3.5 | 6.1 | 0.10 | 0.45 | 0.25 | 92 | 1008.9 |
| 20260506070523 | 44 | 51 | 3.5 | 7.8 | 0.11 | 0.45 | 0.25 | 92 | 1008.8 |
| 20260506062021 | 46 | 53 | 1.7 | 4.3 | 0.06 | 0.36 | 0.16 | 92 | 1008.9 |
| 20260506061555 | 46 | 76 | 1.7 | 4.3 | 0.07 | 0.36 | 0.16 | 92 | 1008.7 |
| 20260506061025 | 46 | 41 | 0.9 | 5.2 | 0.07 | 0.35 | 0.15 | 92 | 1008.9 |
| 20260506060523 | 46 | 81 | 1.7 | 5.2 | 0.06 | 0.34 | 0.14 | 92 | 1008.9 |